{"data":{"norad_id":68072,"epoch":"2026-09-19T23:35:19.591296Z","epoch_age_seconds":100079,"freshness":"FRESH","line1":"1 68072U 26042D   26262.98286564  .00020365  00000+0  61205-3 0  9995","line2":"2 68072  53.1620 351.8932 0000973  93.7953 266.3161 15.34409667 32115","mean_motion":15.34409667,"eccentricity":9.73e-5,"inclination_deg":53.162,"raan_deg":351.8932,"arg_perigee_deg":93.7953,"mean_anomaly_deg":266.3161,"bstar":0.00061205,"rev_number":3211,"period_min":93.847166827058,"perigee_km":462.008897037,"apogee_km":463.34011895645,"semimajor_km":6840.8115079967,"source":"CELESTRAK","updated_at":"2026-09-20T09:00:43.777417Z"}}